TimeCST,TemperatureF,Dew PointF,Humidity,Sea Level PressureIn,VisibilityMPH,Wind Direction,Wind SpeedMPH,Gust SpeedMPH,PrecipitationIn,Events,Conditions,WindDirDegrees,DateUTC
12:06 AM,50.0,50.0,100,29.83,5.0,WSW,5.8,-,N/A,,Overcast,240,2012-12-02 06:06:00
12:24 AM,50.0,50.0,100,29.83,5.0,West,4.6,-,N/A,,Mostly Cloudy,270,2012-12-02 06:24:00
12:36 AM,50.0,50.0,100,29.83,6.0,West,6.9,-,N/A,,Overcast,270,2012-12-02 06:36:00
12:38 AM,50.0,50.0,100,29.83,6.0,West,6.9,-,N/A,,Overcast,280,2012-12-02 06:38:00
12:39 AM,50.0,50.0,100,29.83,6.0,West,8.1,-,N/A,,Overcast,280,2012-12-02 06:39:00
12:45 AM,50.0,50.0,100,29.83,7.0,WNW,6.9,-,N/A,,Overcast,290,2012-12-02 06:45:00
12:55 AM,50.4,48.9,95,29.83,7.0,WNW,5.8,-,N/A,,Overcast,290,2012-12-02 06:55:00
1:15 AM,50.0,48.2,94,29.84,7.0,West,5.8,-,N/A,,Overcast,280,2012-12-02 07:15:00
1:19 AM,50.0,48.2,94,29.84,7.0,West,8.1,-,N/A,,Overcast,270,2012-12-02 07:19:00
1:34 AM,50.0,48.2,94,29.84,8.0,West,6.9,-,N/A,,Mostly Cloudy,270,2012-12-02 07:34:00
1:55 AM,49.1,47.1,93,29.84,7.0,West,6.9,-,N/A,,Mostly Cloudy,270,2012-12-02 07:55:00
1:57 AM,48.2,46.4,93,29.84,7.0,West,6.9,-,N/A,,Scattered Clouds,270,2012-12-02 07:57:00
2:03 AM,48.2,46.4,93,29.84,7.0,West,6.9,-,N/A,,Mostly Cloudy,280,2012-12-02 08:03:00
2:11 AM,48.2,46.4,93,29.84,7.0,West,5.8,-,N/A,,Mostly Cloudy,270,2012-12-02 08:11:00
2:22 AM,46.4,46.4,100,29.85,6.0,WSW,3.5,-,N/A,,Mostly Cloudy,250,2012-12-02 08:22:00
2:55 AM,45.9,44.8,96,29.86,5.0,West,4.6,-,N/A,,Mostly Cloudy,260,2012-12-02 08:55:00
3:55 AM,46.9,45.7,95,29.87,5.0,West,6.9,-,N/A,,Mostly Cloudy,280,2012-12-02 09:55:00
4:40 AM,46.4,46.4,100,29.88,5.0,NW,4.6,-,N/A,,Overcast,310,2012-12-02 10:40:00
4:49 AM,46.4,44.6,93,29.88,6.0,NW,4.6,-,N/A,,Overcast,320,2012-12-02 10:49:00
4:55 AM,46.8,45.3,95,29.89,6.0,NW,4.6,-,N/A,,Overcast,310,2012-12-02 10:55:00
5:55 AM,42.4,40.5,93,29.91,7.0,WNW,4.6,-,N/A,,Mostly Cloudy,300,2012-12-02 11:55:00
6:07 AM,42.8,41.0,93,29.91,7.0,WNW,4.6,-,N/A,,Mostly Cloudy,300,2012-12-02 12:07:00
6:55 AM,42.8,40.8,93,29.94,7.0,WNW,5.8,-,N/A,,Overcast,300,2012-12-02 12:55:00
7:55 AM,42.3,40.8,95,29.96,4.0,NW,5.8,-,N/A,,Overcast,320,2012-12-02 13:55:00
8:32 AM,42.8,41.0,93,29.99,4.0,NW,6.9,-,N/A,,Overcast,310,2012-12-02 14:32:00
8:55 AM,42.8,41.0,93,29.99,4.0,NNW,6.9,-,N/A,,Overcast,330,2012-12-02 14:55:00
9:55 AM,42.8,39.2,87,30.01,4.0,NW,6.9,-,N/A,,Overcast,320,2012-12-02 15:55:00
10:55 AM,41.0,39.2,93,30.02,4.0,NNW,6.9,-,N/A,,Overcast,330,2012-12-02 16:55:00
11:55 AM,42.8,39.2,87,30.00,4.0,WNW,5.8,-,N/A,,Overcast,300,2012-12-02 17:55:00
12:55 PM,42.8,39.2,87,30.01,4.0,Calm,Calm,-,N/A,,Overcast,0,2012-12-02 18:55:00
1:55 PM,42.8,39.2,87,30.00,5.0,Calm,Calm,-,N/A,,Overcast,0,2012-12-02 19:55:00
2:55 PM,42.8,39.2,87,30.00,5.0,NNE,3.5,-,N/A,,Overcast,20,2012-12-02 20:55:00
3:55 PM,41.0,37.4,87,30.01,5.0,ENE,3.5,-,N/A,,Overcast,70,2012-12-02 21:55:00
4:15 PM,39.2,37.4,93,30.00,4.0,ENE,3.5,-,N/A,,Overcast,60,2012-12-02 22:15:00
4:35 PM,37.4,35.6,93,30.01,3.0,Calm,Calm,-,N/A,,Overcast,0,2012-12-02 22:35:00
4:55 PM,35.6,35.6,100,30.04,3.0,Calm,Calm,-,N/A,,Overcast,0,2012-12-02 22:55:00
5:02 PM,37.4,35.6,93,30.04,4.0,Calm,Calm,-,N/A,,Overcast,0,2012-12-02 23:02:00
5:12 PM,39.2,37.4,93,30.04,5.0,Calm,Calm,-,N/A,,Overcast,0,2012-12-02 23:12:00
5:25 PM,39.2,37.4,93,30.05,5.0,ENE,3.5,-,N/A,,Overcast,60,2012-12-02 23:25:00
5:32 PM,39.2,37.4,93,30.06,5.0,East,3.5,-,N/A,,Overcast,80,2012-12-02 23:32:00
5:48 PM,39.2,37.4,93,30.05,3.0,ESE,5.8,-,N/A,,Overcast,110,2012-12-02 23:48:00
5:55 PM,39.2,38.1,96,30.05,3.0,ESE,5.8,-,N/A,,Overcast,120,2012-12-02 23:55:00
6:13 PM,39.2,37.4,93,30.04,2.5,ESE,8.1,-,N/A,,Overcast,110,2012-12-03 00:13:00
6:19 PM,39.2,37.4,93,30.04,2.0,ESE,5.8,-,N/A,,Overcast,110,2012-12-03 00:19:00
6:28 PM,39.2,37.4,93,30.03,1.8,ESE,8.1,-,N/A,,Overcast,120,2012-12-03 00:28:00
6:32 PM,39.2,37.4,93,30.03,2.0,ESE,8.1,-,N/A,,Overcast,120,2012-12-03 00:32:00
6:33 PM,39.2,37.4,93,30.03,1.8,ESE,8.1,-,N/A,,Overcast,120,2012-12-03 00:33:00
6:55 PM,38.8,38.3,98,30.02,1.8,Variable,4.6,-,N/A,,Overcast,0,2012-12-03 00:55:00
7:08 PM,39.2,37.4,93,30.01,1.5,SE,4.6,-,N/A,,Overcast,140,2012-12-03 01:08:00
7:14 PM,39.2,37.4,93,30.01,1.8,ESE,4.6,-,N/A,,Overcast,120,2012-12-03 01:14:00
7:27 PM,39.2,37.4,93,30.02,1.5,SE,4.6,-,N/A,,Overcast,140,2012-12-03 01:27:00
7:31 PM,39.2,37.4,93,30.02,1.2,SE,5.8,-,N/A,,Overcast,130,2012-12-03 01:31:00
7:41 PM,37.4,37.4,100,30.02,1.0,SE,9.2,-,N/A,,Mist,140,2012-12-03 01:41:00
7:46 PM,37.4,37.4,100,30.02,0.8,SE,8.1,-,N/A,,Mist,140,2012-12-03 01:46:00
7:55 PM,37.8,37.2,98,30.02,0.8,SE,9.2,-,N/A,,Mist,130,2012-12-03 01:55:00
8:16 PM,37.4,37.4,100,30.02,1.0,SE,6.9,-,N/A,,Mist,130,2012-12-03 02:16:00
8:22 PM,37.4,37.4,100,30.02,1.2,ESE,8.1,-,N/A,,Overcast,120,2012-12-03 02:22:00
8:36 PM,37.4,37.4,100,30.02,1.0,Variable,5.8,-,N/A,,Mist,0,2012-12-03 02:36:00
8:55 PM,37.4,37.2,99,30.03,1.2,ESE,8.1,-,N/A,,Overcast,110,2012-12-03 02:55:00
9:06 PM,37.4,37.4,100,30.03,1.5,ESE,5.8,-,N/A,,Overcast,120,2012-12-03 03:06:00
9:19 PM,37.4,37.4,100,30.02,1.8,SE,6.9,-,N/A,,Overcast,130,2012-12-03 03:19:00
9:25 PM,37.4,37.4,100,30.02,1.5,ESE,4.6,-,N/A,,Overcast,120,2012-12-03 03:25:00
9:39 PM,37.4,37.4,100,30.02,1.2,East,8.1,-,N/A,,Overcast,100,2012-12-03 03:39:00
9:48 PM,39.2,37.4,93,30.02,1.0,ESE,5.8,-,N/A,,Mist,110,2012-12-03 03:48:00
9:55 PM,38.3,38.1,99,30.02,1.0,ESE,4.6,-,N/A,,Mist,110,2012-12-03 03:55:00
9:57 PM,39.2,37.4,93,30.03,1.0,ESE,3.5,-,N/A,,Mist,120,2012-12-03 03:57:00
10:03 PM,39.2,37.4,93,30.03,0.8,ESE,4.6,-,N/A,,Mist,120,2012-12-03 04:03:00
10:23 PM,39.2,37.4,93,30.02,0.5,ESE,6.9,-,N/A,Fog,Fog,110,2012-12-03 04:23:00
10:55 PM,38.7,38.3,99,30.00,0.5,ESE,6.9,-,N/A,Fog,Fog,110,2012-12-03 04:55:00
11:55 PM,38.5,38.3,99,29.95,0.5,SE,10.4,-,N/A,Fog,Fog,140,2012-12-03 05:55:00